Weather History for Howell, MI

Change the Weather History Date:

Wednesday, June 26, 2013

  Actual Average Record
Temperature  
Mean Temperature 72 °F -  
Max Temperature 81 °F 80 °F 93 °F (2007)
Min Temperature 63 °F 58 °F 46 °F (2004)
Cooling Degree Days 7    
Growing Degree Days 22 (Base 50)    
Moisture  
Dew Point 68 °F    
Average Humidity 83    
Maximum Humidity 100    
Minimum Humidity 63    
Precipitation  
Precipitation 0.00 in - - ()
Sea Level Pressure  
Sea Level Pressure 29.83 in    
Wind  
Wind Speed 4 mph (South)    
Max Wind Speed 12 mph    
Max Gust Speed -    
Visibility 9 miles    
Events Rain    
Averages and records for this station are not official NWS values.
T = Trace of Precipitation, MM = Missing Value Source: NWS Daily Summary

Daily Weather History Graph

Daily Weather History Graph

Search for Another Location

Airport:

Trip Planner

Search our weather history database for the weather conditions in past years. The results will help you decide how hot, cold, wet, or windy it might be!

Date:

Astronomy

Jun. 26, 2013 Rise Set
Actual Time 5:59 AM EDT 9:17 PM EDT
Civil Twilight 5:24 AM EDT 9:52 PM EDT
Nautical Twilight 4:39 AM EDT 10:38 PM EDT
Astronomical Twilight 3:43 AM EDT 11:33 PM EDT
Moon 11:34 PM EDT (6/26) 9:55 AM EDT (6/26)
Length of Visible Light 16h 28m
Length of Day
15h 18m
Waning Gibbous, 85% of the Moon is Illuminated
Jun 26
Waning Gibbous
Jun 30
Last Quarter
Jul 8
New
Jul 15
First Quarter
Jul 22
Full

Hourly Weather History & Observations

Time (EDT) Temp. Heat Index Dew Point Humidity Pressure Visibility Wind Dir Wind Speed Gust Speed Precip Events Conditions
12:15 AM 70.7 °F - 68.7 °F 93% 29.89 in 10.0 mi SSW 9.2 mph - N/A Rain Light Rain
12:35 AM 69.8 °F - 67.3 °F 92% 29.89 in 10.0 mi SSW 5.8 mph - N/A   Scattered Clouds
12:55 AM 69.3 °F - 67.3 °F 93% 29.90 in 10.0 mi SW 6.9 mph - N/A   Scattered Clouds
1:15 AM 68.9 °F - 66.7 °F 93% 29.89 in 10.0 mi SSW 8.1 mph - N/A   Scattered Clouds
1:35 AM 68.5 °F - 66.6 °F 93% 29.88 in 10.0 mi SSW 4.6 mph - N/A   Clear
1:55 AM 68.2 °F - 66.4 °F 94% 29.86 in 10.0 mi SW 5.8 mph - N/A   Clear
2:14 AM 67.8 °F - 66.2 °F 95% 29.84 in 10.0 mi WSW 3.5 mph - N/A   Clear
2:35 AM 67.3 °F - 65.8 °F 95% 29.84 in 10.0 mi Calm Calm - N/A   Clear
2:55 AM 66.7 °F - 65.7 °F 96% 29.84 in 7.0 mi Calm Calm - N/A   Clear
3:14 AM 66.7 °F - 66.2 °F 98% 29.83 in 10.0 mi Calm Calm - N/A   Clear
3:35 AM 66.6 °F - 65.7 °F 97% 29.83 in 10.0 mi Calm Calm - N/A   Clear
3:55 AM 66.2 °F - 65.5 °F 98% 29.83 in 7.0 mi Calm Calm - N/A   Clear
4:14 AM 65.8 °F - 65.3 °F 98% 29.84 in 10.0 mi Calm Calm - N/A   Clear
4:35 AM 65.5 °F - 64.9 °F 98% 29.84 in 10.0 mi Calm Calm - N/A   Clear
4:55 AM 65.3 °F - 64.6 °F 98% 29.84 in 7.0 mi Calm Calm - N/A   Clear
5:14 AM 64.2 °F - 63.9 °F 99% 29.85 in 7.0 mi Calm Calm - N/A   Clear
5:35 AM 64.4 °F - 63.9 °F 98% 29.84 in 3.0 mi Calm Calm - N/A   Clear
5:55 AM 63.9 °F - 63.7 °F 99% 29.85 in 4.0 mi Calm Calm - N/A   Clear
6:15 AM 64.4 °F - 64.0 °F 99% 29.84 in 5.0 mi SE 3.5 mph - N/A   Clear
6:35 AM 64.4 °F - 64.4 °F 100% 29.85 in 5.0 mi Calm Calm - N/A   Clear
6:55 AM 65.7 °F - 65.7 °F 100% 29.86 in 7.0 mi Calm Calm - N/A   Clear
7:15 AM 67.1 °F - 66.9 °F 99% 29.87 in 10.0 mi SSE 3.5 mph - N/A   Clear
7:35 AM 68.0 °F - 67.3 °F 98% 29.87 in 10.0 mi SSE 6.9 mph - N/A   Clear
7:55 AM 69.1 °F - 67.8 °F 96% 29.86 in 10.0 mi SSE 4.6 mph - N/A   Clear
8:15 AM 70.0 °F - 67.6 °F 92% 29.87 in 10.0 mi South 3.5 mph - N/A   Clear
8:34 AM 71.1 °F - 67.8 °F 89% 29.87 in 10.0 mi South 4.6 mph - N/A   Clear
8:55 AM 71.6 °F - 67.5 °F 87% 29.88 in 10.0 mi South 8.1 mph - N/A   Scattered Clouds
9:15 AM 71.6 °F - 67.5 °F 87% 29.88 in 10.0 mi SSW 5.8 mph - N/A   Mostly Cloudy
9:34 AM 71.4 °F - 67.3 °F 87% 29.88 in 10.0 mi South 4.6 mph - N/A   Overcast
9:55 AM 73.4 °F - 68.4 °F 84% 29.88 in 10.0 mi SW 6.9 mph - N/A   Overcast
10:15 AM 73.6 °F - 67.3 °F 81% 29.87 in 10.0 mi South 5.8 mph - N/A   Overcast
10:34 AM 74.1 °F - 67.5 °F 80% 29.87 in 10.0 mi SSW 3.5 mph - N/A   Overcast
10:55 AM 75.2 °F - 67.6 °F 77% 29.87 in 10.0 mi SW 8.1 mph - N/A   Overcast
11:15 AM 76.3 °F - 67.8 °F 75% 29.88 in 10.0 mi SW 8.1 mph - N/A   Mostly Cloudy
11:34 AM 76.8 °F - 68.0 °F 74% 29.87 in 10.0 mi WSW 6.9 mph - N/A   Mostly Cloudy
11:55 AM 77.2 °F - 67.6 °F 72% 29.87 in 10.0 mi WSW 6.9 mph - N/A   Mostly Cloudy
12:15 PM 77.2 °F - 68.2 °F 74% 29.87 in 10.0 mi SSW 8.1 mph - N/A   Mostly Cloudy
12:34 PM 77.0 °F - 67.8 °F 73% 29.87 in 10.0 mi WSW 11.5 mph - N/A   Overcast
12:55 PM 75.7 °F - 68.4 °F 78% 29.87 in 10.0 mi WSW 8.1 mph - N/A   Overcast
1:15 PM 76.3 °F - 68.5 °F 77% 29.87 in 10.0 mi SW 5.8 mph - N/A   Overcast
1:35 PM 75.6 °F - 68.4 °F 78% 29.86 in 10.0 mi WSW 3.5 mph - N/A   Overcast
1:55 PM 76.1 °F - 67.5 °F 74% 29.85 in 10.0 mi Calm Calm - N/A   Mostly Cloudy
2:15 PM 75.9 °F - 68.4 °F 77% 29.83 in 10.0 mi Calm Calm - N/A   Clear
2:35 PM 76.6 °F - 68.5 °F 76% 29.83 in 10.0 mi Calm Calm - N/A   Clear
2:55 PM 78.1 °F - 68.2 °F 71% 29.83 in 10.0 mi SE 6.9 mph - N/A   Clear
3:14 PM 78.3 °F - 68.7 °F 72% 29.83 in 10.0 mi SSE 6.9 mph - N/A   Clear
3:35 PM 79.0 °F - 69.1 °F 72% 29.83 in 10.0 mi South 5.8 mph - N/A   Clear
3:55 PM 78.8 °F - 68.7 °F 71% 29.83 in 10.0 mi South 5.8 mph - N/A   Clear
4:14 PM 79.9 °F - 68.7 °F 69% 29.82 in 10.0 mi Calm Calm - N/A   Clear
4:35 PM 80.8 °F 84.2 °F 70.2 °F 70% 29.81 in 10.0 mi Calm Calm - N/A   Scattered Clouds
4:55 PM 80.2 °F 83.3 °F 69.8 °F 70% 29.81 in 10.0 mi SSE 3.5 mph - N/A   Scattered Clouds
5:14 PM 80.1 °F 83.4 °F 70.7 °F 73% 29.81 in 10.0 mi SSE 4.6 mph - N/A   Scattered Clouds
5:35 PM 81.3 °F 85.0 °F 70.3 °F 69% 29.80 in 10.0 mi SE 4.6 mph - N/A   Scattered Clouds
5:55 PM 81.1 °F 84.9 °F 70.5 °F 70% 29.80 in 10.0 mi South 4.6 mph - N/A   Scattered Clouds
6:14 PM 81.0 °F 84.6 °F 70.2 °F 70% 29.79 in 10.0 mi ESE 4.6 mph - N/A   Mostly Cloudy
6:35 PM 81.9 °F 85.4 °F 69.4 °F 66% 29.78 in 10.0 mi SE 6.9 mph - N/A   Scattered Clouds
6:55 PM 81.7 °F 84.5 °F 68.2 °F 63% 29.77 in 10.0 mi SSE 5.8 mph - N/A   Clear
7:14 PM 81.5 °F 84.4 °F 68.4 °F 64% 29.78 in 10.0 mi SE 5.8 mph - N/A   Clear
7:35 PM 81.0 °F 84.2 °F 69.4 °F 68% 29.77 in 10.0 mi ESE 5.8 mph - N/A   Clear
7:55 PM 80.2 °F 83.3 °F 69.6 °F 70% 29.78 in 10.0 mi South 4.6 mph - N/A   Clear
8:14 PM 79.7 °F - 69.3 °F 70% 29.78 in 10.0 mi SSE 4.6 mph - N/A   Clear
8:35 PM 78.8 °F - 68.2 °F 70% 29.78 in 10.0 mi South 3.5 mph - N/A   Clear
8:55 PM 77.7 °F - 68.4 °F 73% 29.78 in 10.0 mi SSE 4.6 mph - N/A   Clear
9:15 PM 76.5 °F - 69.1 °F 78% 29.78 in 10.0 mi SSE 5.8 mph - N/A   Clear
9:35 PM 75.2 °F - 68.9 °F 81% 29.77 in 4.0 mi SE 4.6 mph - N/A   Haze
9:54 PM 74.7 °F - 68.9 °F 82% 29.77 in 7.0 mi ESE 3.5 mph - N/A   Clear
10:15 PM 74.7 °F - 69.1 °F 83% 29.78 in 10.0 mi SE 5.8 mph - N/A   Scattered Clouds
10:34 PM 74.7 °F - 68.5 °F 81% 29.78 in 10.0 mi SSE 4.6 mph - N/A   Scattered Clouds
10:55 PM 73.9 °F - 68.0 °F 82% 29.79 in 10.0 mi South 3.5 mph - N/A   Clear
11:15 PM 73.6 °F - 67.3 °F 81% 29.78 in 10.0 mi Calm Calm - N/A   Clear
11:34 PM 73.4 °F - 67.5 °F 82% 29.78 in 10.0 mi Calm Calm - N/A   Scattered Clouds
11:55 PM 73.4 °F - 67.1 °F 81% 29.78 in 10.0 mi Calm Calm - N/A   Mostly Cloudy